Content
SEND FEEDBACK

Daily
Averages
Monthly
Summary
Uruguay

PANDO, URUGUAY


Home > South America > Uruguay
Elevation: 32 feet     Latitude: 34 45S     Longitude: 055 58W

WEATHER
 
SELECT A DAY
Number of Records: 171,405;   Date Range: 6/30/96 - 8/30/14
 
SHARE

PRINT THIS DATA

[ ← Previous Day ]
WEATHER ALMANAC - FEBRUARY 13, 2013
[ Next Day → ]
[ °C ]   °F
Weather ElementAverageHighLow
Temperature77.1 °F86 °F (2:00 pm)69.8 °F (4:00 am)
Dewpoint67.3 °F71.6 °F (9:00 pm)62.6 °F (5:00 pm)
Humidity72.4 %88 % (4:00 am)44 % (4:00 pm)
Barometer29.75 in29.83 in (11:00 pm)29.68 in (1:00 am)
Wind Speed2.6 mph9.2 mph (3:00 pm)
Weather ElementAverage
Visibility5.9 mi
Wind DirectionSSE (147.2 °)

Weather ElementTotal
Precipitation---
Cooling Degree Days12.9 (Base 65)
Growing Degree Days27.9 (Base 50)
Averaged from 27 records on February 13, 2013
WEATHER CONDITIONS BREAKOUT
WIND DIRECTION BREAKOUT
WEATHER BY HOUR - FEBRUARY 13, 2013
[ °C ]   °F
Local TimeTemperatureDewpointHumidityBarometerVisibilityWind DirectionWind SpeedGust SpeedPrecipitationEventsConditions
1:00 AM73.4 °F68.0 °F83 %29.68 inWest (260°)2.3 mphClear
2:00 AM73.4 °F66.2 °F78 %29.71 inCalmClear
3:00 AM71.6 °F66.2 °F83 %29.68 inCalmClear
4:00 AM70.0 °F66.0 °F83 %29.70 in12.0 miNNW (340°)4.6 mphPartly Cloudy
4:00 AM69.8 °F66.2 °F88 %29.68 inNNW (340°)4.6 mphClear
5:00 AM69.8 °F66.2 °F88 %29.71 inNW (310°)4.6 mphClear
6:00 AM69.8 °F66.2 °F88 %29.71 inCalmClear
7:00 AM69.8 °F66.2 °F88 %29.74 inCalmClear
8:00 AM69.8 °F66.2 °F88 %29.74 inCalmClear
9:00 AM71.6 °F68.0 °F88 %29.74 in4.3 miCalm
10:00 AM75.0 °F71.0 °F82 %29.77 in2.0 miCalmMist
10:00 AM75.2 °F69.8 °F83 %29.77 in4.3 miCalmMostly Cloudy
11:00 AM78.8 °F69.8 °F74 %29.77 in5.0 miNW (320°)3.5 mphMostly Cloudy
12:00 PM80.6 °F68.0 °F65 %29.77 in6.2 miWNW (300°)3.5 mphMostly Cloudy
1:00 PM84.2 °F68.0 °F58 %29.77 inWSW (250°)5.8 mphClear
2:00 PM86.0 °F68.0 °F55 %29.77 inSW (230°)8.1 mphClear
3:00 PM84.2 °F66.2 °F55 %29.77 in6.2 miWSW (240°)9.2 mphMostly Cloudy
4:00 PM84.0 °F65.0 °F44 %29.77 in6.0 miWest (260°)5.8 mphScattered Clouds
4:00 PM84.2 °F66.2 °F55 %29.77 in6.2 miWest (260°)5.8 mphMostly Cloudy
5:00 PM84.2 °F62.6 °F48 %29.77 in6.2 miWNW (290°)6.9 mphMostly Cloudy
6:00 PM84.2 °F64.4 °F51 %29.74 in6.2 miWest (280°)4.6 mphMostly Cloudy
7:00 PM82.4 °F64.4 °F54 %29.74 inCalmClear
8:00 PM78.8 °F68.0 °F69 %29.74 inCalmClear
9:00 PM78.8 °F71.6 °F78 %29.77 inCalmClear
10:00 PM77.0 °F70.0 °F73 %29.80 in6.0 miCalmOvercast
10:00 PM77.0 °F71.6 °F83 %29.80 inCalmClear
11:00 PM77.0 °F68.0 °F74 %29.83 inCalmClear
Hourly data recorded from SUMU, located miles away from Pando, Uruguay







STORIES FROM OUR PARTNERS